{"data":{"norad_id":64188,"intl_designator":"2025-113U","name":"STARLINK-33929","alt_names":[],"object_type":"PAYLOAD","status":"ACTIVE","operator":null,"country":"US","launch_date":"2025-05-28","launch_site_code":"AFETR","launch_vehicle":null,"mission":null,"orbit_class":"UNKNOWN","rcs_meters":null,"size_class":null,"mass_kg":null,"dimensions":null,"purposes":["comms"],"wikipedia_slug":null,"has_3d_model":false,"image_url":null,"decayed_at":null,"tle_current":{"epoch":"2026-09-20T06:25:56.464896Z","epoch_age_seconds":160520,"freshness":"FRESH","line1":"1 64188U 25113U   26263.26801464  .00009864  00000+0  30269-3 0  9998","line2":"2 64188  53.1599 266.7822 0001399  88.9907 271.1256 15.34399355 74863","mean_motion":15.34399355,"eccentricity":0.0001399,"inclination_deg":53.1599,"raan_deg":266.7822,"arg_perigee_deg":88.9907,"mean_anomaly_deg":271.1256,"bstar":0.00030269,"rev_number":7486,"period_min":93.847797531171,"perigee_km":461.7481234659,"apogee_km":463.66219110151,"semimajor_km":6840.8421572837,"source":"CELESTRAK","updated_at":"2026-09-21T09:00:35.246525Z"}}}